一网星座-0139星 (ONEWEB-0139 )

导读 | 星芒AI

ONEWEB-0139 是 OneWeb 卫星星座计划中的一颗低轨通信卫星,旨在为全球提供高速互联网服务。该卫星由阿丽亚娜集团制造,采用 OneWeb 标准化卫星平台,具备高容量通信载荷,支持极地轨道覆盖,以确保偏远和高纬度地区的网络连接。2022 年 3 月,该卫星随其他 34 颗卫星一同由俄制联盟号火箭从法属圭亚那发射升空。ONEWEB-0139 的部署有助于扩大 OneWeb 的全球宽带网络,提升其在航空、海运及农村地区的服务能力。

基本信息
目录编号:
47285
目录名称:
ONEWEB-0139
国际标识:
2020-100AD
轨道中心:
EARTH
卫星名称:
一网星座-0139星
卫星全名:
一网星座-0139星 (ONEWEB-0139 )
卫星状态:
在轨 (已飞行1821 天)
发射日期:
2020-12-18 UTC
国别 :
英国 (GB)
星等 :
--
轨道信息
数据来源 国际轨道数据
星历时间: 2025-12-13T04:15:07+0800
13小时前
查看轨道信息
半长轴: 7592.114km
偏心率: 0.0001442
轨道倾角: 87.894°
近地点辐角 102.246°
升交点赤经 27.668°
平近点角 257.883°
近地点: 1212.884km
远地点: 1215.074km
周期: 109.725分钟
每日圈数: 13.123773
详细信息
平衡模式:
三轴稳定
覆盖范围:
全球
运营商:
一网卫星公司
运营商所在国:
英国
制造商(研发单位):
一网卫星公司
制造商所在国:
英国
使用方式:
暂无
卫星简介
OneWeb卫星网络由648颗重约125公斤的微型卫星组成,运行在1200公里的轨道上。 每颗卫星都能够提供至少每秒8千兆位的吞吐量,以使用其高吞吐量的Ku频段有效载荷为家庭和移动平台提供互联网接入。该卫星仍在工作。
2D轨道图
3D轨道图
轨道高度分析图
轨道倾角分析图
轨道综合分析图
查看轨道综合分析图